Date,TemperatureHighF,TemperatureAvgF,TemperatureLowF,DewpointHighF,DewpointAvgF,DewpointLowF,HumidityHigh,HumidityAvg,HumidityLow,PressureMaxIn,PressureMinIn,WindSpeedMaxMPH,WindSpeedAvgMPH,GustSpeedMaxMPH,PrecipitationSumIn
2013-1-1,32.6,22.2,10.5,29.4,17.6,7.7,94,83,67,30.01,29.79,18,7,18,0.00
2013-1-2,23.7,15.4,-1.4,20.3,10.4,-6.3,91,80,64,30.27,29.96,14,4,14,0.00
2013-1-3,28.7,10.7,-6.4,24.4,6.9,-10.3,93,84,71,30.26,29.99,17,2,17,0.00
2013-1-4,34.8,30.1,27.2,25.8,22.9,19.5,86,75,65,30.00,29.88,21,9,21,0.02
2013-1-5,32.8,30.3,26.6,26.1,23.0,20.0,83,74,62,30.28,29.95,23,6,23,0.01
2013-1-6,37.1,32.8,27.5,31.8,27.8,21.8,94,82,73,30.14,29.85,14,4,14,0.04
2013-1-7,35.1,25.8,18.0,31.9,22.3,14.5,94,86,79,30.33,29.95,14,5,14,0.04
2013-1-8,38.6,30.1,23.9,25.8,22.5,18.4,83,73,56,30.31,30.17,12,4,12,0.01
2013-1-9,45.4,36.4,27.8,34.3,27.3,21.3,79,70,55,30.30,29.98,29,9,29,0.00
2013-1-10,38.5,33.4,24.0,29.6,25.4,20.1,88,73,59,30.56,30.21,34,6,34,0.02
2013-1-11,39.4,33.3,23.8,36.6,28.6,20.2,92,83,65,30.52,30.05,15,7,15,0.20
2013-1-12,46.2,41.8,38.5,43.9,39.9,36.5,98,93,86,30.11,30.04,12,3,12,0.00
2013-1-13,55.6,48.2,39.7,51.3,46.0,38.8,98,92,77,30.07,29.85,16,6,16,0.00
2013-1-14,50.4,38.4,30.3,48.2,33.6,22.7,96,83,70,30.35,29.80,23,8,23,0.01
2013-1-15,31.7,29.6,27.7,25.1,23.6,21.2,87,78,67,30.38,30.22,9,2,9,0.00
2013-1-16,33.0,29.9,26.9,29.4,26.4,22.5,94,87,77,30.22,29.81,13,3,13,0.01
2013-1-17,33.8,26.8,17.9,29.2,18.7,7.4,89,71,58,30.18,29.85,20,6,20,0.01
2013-1-18,25.7,16.4,6.4,13.3,7.0,-2.1,80,66,50,30.43,30.13,17,4,17,0.00
2013-1-19,46.6,38.2,25.8,28.5,20.2,12.4,66,48,42,30.21,29.70,21,9,21,0.00
2013-1-20,46.1,32.3,16.5,34.5,21.0,11.4,94,64,44,30.02,29.46,35,12,35,0.06
2013-1-21,22.9,16.3,8.1,18.2,12.9,5.0,92,87,69,30.04,29.83,12,1,12,0.01
2013-1-22,14.6,10.4,4.6,12.5,4.3,-1.9,91,77,57,30.16,29.83,17,7,17,0.00
2013-1-23,4.8,-1.1,-7.6,0.4,-6.9,-13.6,86,76,64,30.27,30.15,12,2,12,0.00
2013-1-24,10.8,1.5,-10.2,7.2,-3.9,-14.4,88,78,61,30.47,30.19,20,5,20,0.00
2013-1-25,13.4,7.4,0.0,7.2,1.6,-4.7,89,77,56,30.49,30.12,12,1,12,0.00
2013-1-26,15.4,8.1,0.4,7.5,3.5,-2.9,90,82,61,30.40,30.11,14,2,14,0.00
2013-1-27,20.7,12.4,0.2,10.4,5.6,-3.5,91,75,52,30.59,30.40,9,2,9,0.00
2013-1-28,36.2,25.1,17.7,35.4,20.0,8.7,97,81,59,30.49,29.93,15,5,15,0.00
2013-1-29,45.9,37.2,29.9,44.8,35.8,28.9,98,95,82,30.11,29.90,14,4,14,0.52
2013-1-30,59.7,53.0,42.5,55.9,50.2,39.8,96,90,83,29.90,29.15,24,9,24,0.46
2013-1-31,53.9,34.7,23.1,51.6,27.7,14.5,94,76,57,29.63,28.93,30,11,30,0.38
2013-2-1,23.1,19.1,15.4,16.4,13.2,10.3,91,78,62,30.19,29.63,17,10,17,0.00
2013-2-2,19.4,15.6,11.5,12.1,9.9,7.6,90,78,63,30.21,30.03,12,4,12,0.00
2013-2-3,25.8,17.6,5.6,18.3,12.5,3.1,91,81,59,30.03,29.79,12,2,12,0.02
2013-2-4,20.5,16.7,10.1,17.2,13.3,7.7,92,86,74,29.96,29.82,17,5,17,0.00
2013-2-5,23.9,16.5,4.8,18.6,10.4,1.7,92,77,61,30.03,29.89,8,2,8,0.05
2013-2-6,27.5,22.0,12.8,23.9,14.7,4.4,92,74,43,30.39,29.90,22,7,22,0.00
2013-2-7,25.2,17.0,6.3,12.8,7.4,2.1,84,66,52,30.52,30.29,18,5,18,0.00
2013-2-8,27.8,23.5,19.7,23.9,18.9,10.4,94,83,66,30.29,29.84,23,10,23,0.00
2013-2-9,23.7,16.0,7.8,22.1,11.4,5.2,94,82,60,30.43,29.91,14,5,14,0.00
2013-2-10,31.7,20.2,12.2,16.1,12.0,9.4,92,72,42,30.50,30.15,15,4,15,0.04
2013-2-11,46.2,35.7,22.5,38.7,29.0,9.4,94,77,49,30.15,29.61,17,8,17,0.13
2013-2-12,34.4,32.3,29.6,29.7,27.4,24.5,93,82,72,29.94,29.69,26,10,26,0.01
2013-2-13,35.9,30.1,23.9,25.5,22.4,18.4,84,73,56,29.90,29.73,13,2,13,0.01
2013-2-14,37.9,29.7,18.4,32.0,23.6,15.4,92,79,61,29.96,29.76,12,2,12,0.00
2013-2-15,40.2,35.5,27.7,32.3,27.8,22.5,89,74,53,30.01,29.83,18,6,18,0.02
2013-2-16,28.0,24.1,18.1,23.7,14.4,7.1,89,68,45,30.02,29.89,12,4,12,0.00
2013-2-17,18.9,13.8,10.0,8.8,5.8,1.6,88,71,57,30.06,29.83,24,8,24,0.00
2013-2-18,25.6,14.4,5.0,11.3,6.7,0.8,87,72,53,30.30,30.06,17,6,17,0.00
2013-2-19,40.4,29.3,20.7,33.3,22.2,10.5,95,76,51,30.10,29.64,18,9,18,0.10
2013-2-20,27.4,23.2,19.3,24.3,16.0,10.2,88,74,52,29.94,29.72,26,12,26,0.00
2013-2-21,19.3,15.5,11.8,16.2,12.0,7.5,93,86,79,30.45,29.92,20,8,20,0.00
2013-2-22,33.4,25.5,15.7,26.3,20.2,13.8,93,81,68,30.46,30.17,15,5,15,0.01
2013-2-23,36.6,34.1,32.1,35.7,30.4,23.9,97,87,68,30.17,29.85,14,5,14,0.06
2013-2-24,34.2,30.5,28.6,33.7,27.7,24.9,98,89,74,30.01,29.83,12,4,12,0.11
2013-2-25,37.3,31.0,23.8,31.8,28.2,21.6,96,89,75,30.26,30.01,12,4,12,0.03
2013-2-26,40.9,31.7,19.4,32.4,25.5,17.4,94,79,64,30.28,29.94,29,7,29,0.01
2013-2-27,37.2,34.1,30.7,35.4,32.3,28.8,96,93,80,29.96,29.55,30,7,30,1.27
2013-2-28,35.7,34.0,32.0,34.2,32.8,31.2,97,95,91,29.65,29.55,7,1,7,0.36
2013-3-1,33.7,30.8,27.2,31.7,29.0,24.0,98,93,87,29.85,29.65,15,5,15,0.03
2013-3-2,27.2,23.6,19.8,24.2,20.6,17.8,93,88,81,29.86,29.82,14,6,14,0.00
2013-3-3,25.4,20.8,16.6,19.8,17.4,14.7,93,87,77,29.85,29.80,14,6,14,0.02
2013-3-4,26.4,24.0,21.7,24.0,21.7,19.2,94,91,85,29.98,29.83,21,10,21,0.00
2013-3-5,34.2,27.2,21.6,25.9,23.0,18.5,94,84,70,30.10,29.98,12,3,12,0.07
2013-3-6,39.8,33.7,27.9,30.8,27.0,24.0,89,77,64,30.13,30.01,16,5,16,0.00
2013-3-7,36.2,32.3,27.0,28.4,25.2,22.5,96,76,63,30.20,30.11,12,3,12,0.00
2013-3-8,40.9,30.3,25.7,28.2,25.2,22.5,96,82,56,30.36,30.17,15,5,15,0.25
2013-3-9,45.7,32.9,20.3,29.0,24.5,18.1,95,73,46,30.40,30.31,8,2,8,0.07
2013-3-10,55.3,43.2,26.7,26.9,23.3,19.9,81,48,28,30.31,30.10,17,6,17,0.00
2013-3-11,50.6,46.5,41.3,41.2,31.8,26.2,75,57,45,30.15,29.83,22,10,22,0.00
2013-3-12,51.4,41.8,33.6,47.7,39.3,31.0,97,91,76,29.88,29.74,20,6,20,0.70
2013-3-13,39.7,33.3,27.3,31.1,27.5,18.8,93,80,59,29.89,29.80,17,6,17,0.00
2013-3-14,27.3,22.7,17.0,21.2,15.1,9.3,89,73,58,29.98,29.86,27,12,27,0.00
2013-3-15,34.7,26.7,13.6,31.1,21.1,9.4,93,79,61,30.00,29.68,18,5,18,0.03
2013-3-16,28.8,23.3,13.4,22.5,15.6,9.4,86,72,59,29.97,29.82,9,3,9,0.02
2013-3-17,30.4,22.2,15.2,16.9,12.3,5.5,91,67,48,30.36,29.96,14,5,17,0.00
2013-3-18,32.2,23.3,12.8,24.3,13.5,6.1,92,67,43,30.42,29.94,22,8,22,0.00
2013-3-19,35.9,28.9,24.2,32.2,26.2,18.8,95,90,77,29.95,29.68,25,8,25,0.11
2013-3-20,32.4,25.5,18.8,25.3,20.3,16.1,94,81,59,29.82,29.78,12,4,20,0.07
2013-3-21,32.3,24.1,12.3,17.9,14.1,8.4,88,67,40,29.82,29.70,14,4,14,0.02
2013-3-22,30.6,26.6,21.6,26.6,22.7,15.2,94,85,71,29.85,29.69,24,7,24,0.03
2013-3-23,36.4,30.5,27.5,26.8,24.6,21.6,95,79,59,29.94,29.82,23,9,23,0.12
2013-3-24,39.9,33.0,28.4,25.3,23.8,21.8,81,69,50,29.94,29.76,13,4,13,0.00
2013-3-25,42.3,34.4,28.0,28.4,24.6,21.7,78,68,51,29.76,29.55,14,3,14,0.00
2013-3-26,45.4,36.0,31.4,31.8,26.0,19.0,91,68,36,29.90,29.65,12,3,12,0.00
2013-3-27,44.6,36.9,29.9,32.5,28.8,24.7,87,73,58,30.00,29.87,15,3,15,0.00
2013-3-28,46.1,37.5,32.7,35.1,32.1,29.8,95,82,60,30.16,29.99,16,6,16,0.01
2013-3-29,42.5,37.9,35.5,33.8,31.6,29.1,88,78,68,30.17,30.10,14,4,14,0.00
2013-3-30,49.9,39.4,31.4,32.8,26.7,21.2,84,63,35,30.18,30.09,14,3,14,0.00
2013-3-31,53.8,41.7,31.8,40.6,30.2,21.7,91,65,37,30.10,29.67,23,6,23,0.03
2013-4-1,43.3,36.1,26.8,40.5,30.1,17.2,95,80,53,29.89,29.57,26,8,26,0.10
2013-4-2,32.4,26.3,22.5,24.5,21.7,18.0,93,83,63,30.05,29.87,25,11,25,0.10
2013-4-3,34.2,28.2,23.5,23.8,19.8,16.3,90,71,53,30.33,30.04,25,10,25,0.00
2013-4-4,52.6,37.8,26.6,27.2,22.3,18.8,80,56,29,30.36,29.94,12,5,12,0.00
2013-4-5,45.3,38.3,31.4,31.3,24.3,17.4,88,58,42,30.04,29.86,21,8,21,0.00
2013-4-6,42.7,32.9,23.3,27.6,14.5,7.2,90,49,27,30.33,30.05,14,4,14,0.00
2013-4-7,63.0,49.0,35.2,42.7,29.1,14.5,72,47,33,30.19,29.78,31,11,31,0.02
2013-4-8,58.6,47.3,38.9,41.1,36.1,32.8,83,66,46,30.13,29.86,20,5,20,0.01
2013-4-9,61.3,50.2,43.6,49.7,44.1,40.8,94,80,65,30.08,29.77,23,6,23,0.15
2013-4-10,53.2,47.4,43.7,49.7,46.0,43.1,98,95,84,30.04,29.81,12,2,12,1.09
2013-4-11,43.7,37.6,32.3,43.2,35.5,28.6,98,92,84,30.10,29.90,13,3,13,0.12
2013-4-12,37.4,34.7,31.4,36.1,32.9,28.3,97,93,86,30.06,29.69,29,11,29,0.52
2013-4-13,47.9,41.0,36.9,39.3,36.6,34.8,97,85,66,29.95,29.79,17,3,17,0.05
2013-4-14,45.8,38.2,30.5,35.1,30.3,25.8,93,74,48,30.23,29.93,17,6,17,0.00
2013-4-15,64.8,46.7,30.5,44.2,34.9,25.5,85,65,44,30.30,30.15,17,7,17,0.01
2013-4-16,60.3,53.7,46.5,55.4,46.9,39.2,95,78,61,30.20,29.95,28,12,28,0.46
2013-4-17,58.4,46.7,35.5,42.8,35.0,30.3,88,66,37,30.32,30.16,13,4,13,0.00
2013-4-18,66.8,53.3,39.7,52.7,41.4,31.2,83,65,49,30.29,29.88,31,11,31,0.00
2013-4-19,71.5,60.2,40.8,60.5,53.3,39.1,95,79,56,29.89,29.43,27,11,27,0.64
2013-4-20,46.4,39.3,31.1,39.2,31.1,20.9,92,73,49,30.36,29.70,22,10,22,0.07
2013-4-21,48.9,36.3,26.6,27.2,22.2,17.9,78,59,31,30.65,30.36,12,4,12,0.00
2013-4-22,57.2,44.0,30.0,31.3,25.3,19.7,83,50,29,30.66,30.43,17,7,17,0.00
2013-4-23,57.7,45.4,33.9,42.5,34.4,27.7,82,66,44,30.44,30.08,22,10,22,0.00
2013-4-24,72.3,54.4,39.9,56.6,45.6,36.8,93,74,47,30.08,29.65,27,5,27,0.35
2013-4-25,53.6,43.4,36.3,39.8,31.5,24.8,91,65,36,30.26,29.87,27,7,27,0.00
2013-4-26,51.8,43.1,36.0,38.1,33.5,28.4,95,71,43,30.46,30.25,12,3,12,0.02
2013-4-27,63.7,47.7,31.8,41.1,33.6,27.0,86,61,35,30.46,30.27,10,2,10,0.00
2013-4-28,72.8,58.1,41.0,45.0,39.2,33.8,86,54,25,30.27,30.05,14,4,14,0.00
2013-4-29,59.8,53.1,48.5,49.3,46.6,36.9,90,79,43,30.15,30.08,18,7,18,0.24
2013-4-30,67.6,57.9,49.4,54.1,49.4,46.2,91,74,56,30.25,30.14,12,5,12,0.00
2013-5-1,74.9,62.0,45.3,50.1,39.6,31.3,85,46,29,30.40,30.25,13,5,13,0.00
2013-5-2,78.3,63.7,46.1,49.8,41.4,31.8,78,46,24,30.42,30.24,13,3,13,0.00
2013-5-3,72.2,61.5,51.8,48.6,40.2,32.1,59,46,32,30.37,30.24,22,10,22,0.00
2013-5-4,73.7,59.0,41.1,49.6,40.1,32.6,78,51,30,30.31,30.15,13,3,13,0.00
2013-5-5,74.7,61.7,47.3,52.1,40.6,26.3,80,49,22,30.22,30.08,14,4,14,0.00
2013-5-6,76.3,61.4,46.1,46.9,37.2,24.3,64,43,16,30.19,30.02,9,3,9,0.00
2013-5-7,78.3,65.8,49.1,57.4,49.1,40.5,91,57,29,30.12,29.99,12,3,12,0.00
2013-5-8,68.0,61.4,53.7,60.7,56.0,48.4,95,83,60,30.07,29.91,14,5,14,0.08
2013-5-9,68.3,58.8,51.4,58.8,53.9,50.3,97,85,54,29.93,29.86,9,2,9,0.08
2013-5-10,73.3,62.1,48.7,61.1,54.3,47.8,98,78,51,29.97,29.78,13,2,13,0.16
2013-5-11,64.7,56.3,45.2,60.2,53.8,44.0,97,91,84,29.78,29.64,15,2,15,0.12
2013-5-12,54.6,46.3,35.7,47.2,38.5,28.5,97,77,42,29.89,29.67,25,6,25,0.02
2013-5-13,49.1,40.5,33.7,36.1,30.4,26.0,84,68,45,30.10,29.87,18,8,18,0.00
2013-5-14,54.4,42.7,31.9,35.4,30.3,24.0,89,64,34,30.15,30.02,12,3,12,0.00
2013-5-15,72.8,52.6,35.3,57.4,41.9,27.6,86,67,53,30.03,29.55,20,5,20,0.06
2013-5-16,73.0,62.1,50.5,47.7,41.8,35.8,69,49,31,29.91,29.70,21,6,21,0.00
2013-5-17,65.7,53.4,40.5,47.6,41.6,36.4,88,66,43,30.23,29.91,12,3,12,0.00
2013-5-18,70.7,56.4,38.7,52.1,44.4,36.8,94,67,35,30.29,30.17,10,2,10,0.00
2013-5-19,64.1,58.2,53.5,56.9,52.9,46.6,93,83,71,30.21,30.09,13,5,13,0.02
2013-5-20,79.9,68.3,58.8,68.0,61.1,54.8,91,79,59,30.09,29.88,8,2,8,0.00
2013-5-21,84.5,71.7,62.3,72.9,65.1,60.2,96,81,59,29.90,29.70,17,3,17,0.39
2013-5-22,82.7,71.5,63.5,72.2,66.4,60.6,98,85,56,29.80,29.69,16,3,16,0.78
2013-5-23,76.0,67.4,61.1,66.1,61.7,57.3,97,82,63,29.76,29.68,13,4,13,0.19
2013-5-24,61.3,45.0,40.2,60.7,44.0,38.9,98,96,94,30.09,29.67,18,6,18,0.49
2013-5-25,46.9,43.1,41.1,42.8,40.8,39.4,97,92,78,30.09,30.04,17,4,17,0.49
2013-5-26,58.2,48.1,41.9,41.7,39.3,36.9,93,73,47,30.16,29.99,18,6,18,0.01
2013-5-27,66.0,54.0,41.6,46.3,38.1,32.6,81,58,31,30.24,30.14,14,4,14,0.00
2013-5-28,65.8,55.0,40.7,54.7,46.3,34.7,93,73,52,30.18,30.04,10,3,10,0.05
2013-5-29,80.5,65.8,56.4,71.7,62.3,54.5,97,89,64,30.03,29.87,17,2,17,1.22
2013-5-30,83.7,72.6,61.1,71.0,66.0,60.1,98,81,59,30.09,30.00,12,3,12,0.00
2013-5-31,88.3,77.4,65.4,74.4,66.6,63.0,93,71,47,30.07,29.89,7,2,7,0.00
2013-6-1,86.4,76.6,63.2,73.4,66.1,60.5,93,71,52,29.92,29.76,10,2,13,0.00
2013-6-2,79.8,70.6,60.5,71.2,66.0,58.3,97,86,63,29.80,29.65,13,3,13,0.86
2013-6-3,61.7,55.3,45.6,58.8,48.3,39.3,94,78,46,29.97,29.79,14,5,14,0.00
2013-6-4,64.8,53.9,44.2,47.4,43.1,40.5,89,69,44,30.15,29.96,16,6,16,0.00
2013-6-5,70.0,58.2,43.3,51.8,45.5,38.5,92,65,35,30.20,30.08,8,2,8,0.00
2013-6-6,61.8,56.9,52.8,59.3,51.7,46.6,96,83,72,30.09,29.91,17,4,17,0.62
2013-6-7,58.4,56.0,54.4,56.8,54.6,53.0,96,95,92,29.91,29.77,21,7,21,0.28
2013-6-8,66.0,57.9,54.5,60.7,56.0,53.3,98,93,83,30.05,29.75,12,3,12,0.00
2013-6-9,72.9,61.9,50.5,60.3,55.1,49.7,98,80,54,30.16,30.05,9,2,9,0.00
2013-6-10,65.2,59.6,53.3,60.5,57.2,51.3,96,92,78,30.16,29.78,16,5,16,0.90
2013-6-11,69.0,60.8,56.7,66.3,59.6,55.3,97,96,90,29.78,29.59,20,6,20,0.43
2013-6-12,71.7,60.8,53.6,58.7,54.6,52.0,96,82,54,29.88,29.71,13,2,13,0.00
2013-6-13,59.4,56.2,53.0,55.7,54.5,51.2,98,94,84,29.81,29.59,21,5,21,1.81
2013-6-14,71.1,59.8,52.1,63.8,56.5,51.5,99,90,70,29.91,29.71,15,2,15,0.03
2013-6-15,71.8,60.6,48.3,57.3,51.0,45.5,99,74,43,30.00,29.90,14,4,14,0.00
2013-6-16,69.1,62.3,54.7,63.7,56.7,48.0,97,83,63,29.95,29.67,14,4,14,0.13
2013-6-17,76.8,66.4,57.1,67.6,61.2,55.1,97,84,62,29.90,29.79,13,3,13,0.17
2013-6-18,68.2,59.7,52.3,60.8,54.9,47.6,98,85,55,29.98,29.86,8,1,8,0.03
2013-6-19,68.3,56.9,44.8,52.8,47.0,42.1,97,72,45,30.18,29.97,12,2,12,0.00
2013-6-20,75.0,60.5,44.4,61.4,50.5,42.1,93,72,48,30.26,30.18,8,2,8,0.00
2013-6-21,81.7,66.9,50.3,58.6,52.3,43.3,95,63,34,30.26,30.16,7,1,7,0.00
2013-6-22,83.8,73.5,62.1,69.3,62.6,53.0,81,69,49,30.17,30.01,12,4,12,0.00
2013-6-23,88.3,75.5,68.6,76.9,69.0,64.8,97,81,60,30.06,29.95,20,3,20,1.43
2013-6-24,86.2,73.3,65.1,75.4,67.7,62.6,94,83,65,30.01,29.90,21,3,21,0.70
2013-6-25,81.2,71.6,66.2,73.7,68.1,62.1,98,89,74,29.95,29.76,13,2,13,1.88
2013-6-26,80.7,71.4,66.1,72.0,67.7,64.1,98,89,63,29.80,29.75,9,2,9,0.25
2013-6-27,81.8,70.4,61.7,73.6,66.5,60.8,99,88,56,29.79,29.57,14,1,14,0.51
2013-6-28,73.4,67.6,62.3,67.6,65.1,61.4,99,92,77,29.57,29.42,12,3,12,2.09
2013-6-29,76.8,67.2,59.7,69.7,64.1,59.1,99,90,72,29.67,29.47,14,2,14,0.00
2013-6-30,81.1,70.3,59.1,73.9,66.0,58.3,99,87,63,29.88,29.67,9,2,9,0.61
2013-7-1,72.7,68.9,66.2,71.0,68.0,65.6,99,97,91,29.97,29.87,12,2,12,1.33
2013-7-2,82.4,72.8,66.1,77.4,70.6,65.5,100,93,78,30.07,29.96,12,2,12,0.02
2013-7-3,86.4,76.9,71.3,76.5,71.1,68.8,95,83,62,30.14,30.06,9,3,9,0.00
2013-7-4,86.8,77.5,71.9,78.3,72.4,69.0,96,85,63,30.15,30.06,12,3,12,0.05
2013-7-5,89.0,76.3,69.9,75.8,71.9,68.8,98,87,59,30.12,30.02,12,2,12,0.44
2013-7-6,83.0,74.4,68.3,71.4,68.9,66.0,98,84,59,30.10,30.00,12,2,12,0.01
2013-7-7,86.1,75.7,68.3,76.5,71.2,66.8,98,87,68,30.03,29.88,8,2,8,1.07
2013-7-8,80.8,72.9,67.4,72.1,68.7,65.3,98,87,67,30.02,29.93,10,2,10,0.05
2013-7-9,86.3,74.7,65.1,74.0,68.3,63.4,96,82,54,30.04,29.90,8,2,8,0.00
2013-7-10,82.4,75.5,70.5,75.8,71.0,68.0,93,86,73,29.92,29.70,13,4,13,0.00
2013-7-11,77.5,70.3,62.3,68.8,63.9,60.8,96,81,64,29.99,29.74,12,4,12,0.00
2013-7-12,78.6,68.0,57.7,67.7,62.4,57.1,99,84,56,30.15,29.98,7,1,7,0.00
2013-7-13,79.8,70.4,62.1,71.7,65.8,60.7,96,86,72,30.25,30.15,12,3,12,0.00
2013-7-14,87.2,78.5,67.2,74.2,70.4,65.9,97,78,59,30.30,30.20,10,2,10,0.00
2013-7-15,87.0,82.1,68.7,73.7,70.2,64.5,90,68,56,30.24,30.16,13,3,13,0.00
2013-7-16,87.5,76.6,65.9,74.1,68.4,63.8,94,77,55,30.23,30.14,10,2,10,0.00
2013-7-17,90.4,79.0,66.8,76.5,70.9,65.0,95,78,58,30.20,30.01,10,2,10,0.00
2013-7-18,89.5,80.7,73.4,78.3,73.7,71.2,96,80,59,30.03,29.90,13,3,13,0.06
2013-7-19,91.9,81.1,68.1,76.6,71.9,65.8,93,75,53,29.91,29.68,21,5,21,0.15
2013-7-20,79.1,70.6,63.7,71.0,65.9,60.1,96,85,69,29.84,29.67,13,2,13,0.17
2013-7-21,78.0,69.6,60.3,65.8,60.8,58.4,94,75,52,29.97,29.84,9,2,9,0.00
2013-7-22,80.5,68.8,61.2,72.6,66.2,59.5,98,92,73,29.97,29.77,7,2,8,0.41
2013-7-23,80.5,70.5,64.9,71.1,67.2,64.1,99,90,68,29.77,29.57,9,2,9,0.50
2013-7-24,70.3,62.2,50.4,67.3,56.9,48.9,96,83,69,30.02,29.59,15,5,15,0.00
2013-7-25,73.9,59.6,46.4,59.9,52.8,45.7,98,80,50,30.11,30.02,6,1,6,0.00
2013-7-26,76.5,63.8,51.3,62.8,55.7,50.0,97,77,47,30.08,29.99,9,2,9,0.00
2013-7-27,81.1,68.4,53.1,66.1,60.4,52.1,98,77,51,30.01,29.86,12,2,12,0.28
2013-7-28,72.2,67.5,61.1,68.5,65.1,60.1,98,92,85,29.96,29.85,12,3,12,0.28
2013-7-29,73.5,63.7,55.2,61.8,57.8,54.6,99,82,58,30.10,29.96,8,2,8,0.62
2013-7-30,73.4,63.9,55.9,63.2,57.8,53.8,95,82,62,30.17,30.09,14,3,14,0.00
2013-7-31,76.8,65.7,55.1,64.1,58.6,52.8,95,79,54,30.14,29.97,6,1,6,0.00
2013-8-1,75.3,66.2,60.4,70.6,63.5,57.4,98,91,82,29.97,29.74,14,3,14,0.43
2013-8-2,76.5,65.4,59.0,66.2,61.1,57.5,98,87,57,29.87,29.80,9,2,9,0.26
2013-8-3,73.8,65.7,58.1,63.6,58.7,53.8,97,79,54,29.88,29.78,15,5,15,0.06
2013-8-4,70.6,62.9,56.7,61.9,56.6,53.1,95,81,57,29.99,29.85,17,5,17,0.78
2013-8-5,71.8,60.7,49.4,57.0,51.4,47.5,97,74,45,30.08,29.98,12,2,12,0.00
2013-8-6,77.3,63.4,48.4,60.7,54.0,46.9,97,73,45,30.08,30.03,10,2,10,0.00
2013-8-7,73.2,68.3,63.3,66.0,62.4,56.4,89,81,74,30.06,29.92,12,5,15,0.00
2013-8-8,83.4,74.1,67.7,72.9,68.6,65.0,93,84,66,29.98,29.88,6,1,10,0.00
2013-8-9,76.3,70.7,65.1,72.5,68.6,62.9,97,93,84,29.89,29.77,7,1,10,0.05
2013-8-10,70.8,64.4,53.3,62.9,55.0,46.1,94,74,45,30.07,29.86,11,2,16,0.00
2013-8-11,74.1,62.7,52.7,60.8,54.2,49.9,93,76,49,30.11,30.01,7,1,10,0.00
2013-8-12,77.8,66.0,56.2,64.5,58.5,53.8,92,78,56,30.03,29.87,6,1,9,0.00
2013-8-13,73.5,65.1,57.8,70.5,62.0,52.0,97,90,78,29.87,29.66,10,2,15,1.09
2013-8-14,64.5,58.3,53.2,57.4,53.1,49.9,96,83,73,30.02,29.77,14,3,18,0.14
2013-8-15,71.2,60.5,51.8,57.7,53.3,49.3,94,79,54,30.11,30.02,12,1,14,0.00
2013-8-16,73.0,62.3,53.5,60.5,54.4,50.6,93,77,52,30.20,30.10,6,1,9,0.00
2013-8-17,77.0,63.5,49.8,61.9,55.2,48.4,97,77,43,30.29,30.20,4,0,6,0.00
2013-8-18,75.4,65.7,56.5,66.9,59.7,54.8,96,82,57,30.25,30.09,2,0,4,0.00
2013-8-19,78.4,67.5,58.1,65.6,59.7,56.6,96,78,51,30.10,29.99,6,1,7,0.00
2013-8-20,79.8,68.6,58.2,66.4,61.1,55.3,93,78,56,30.11,30.02,6,1,10,0.00
2013-8-21,82.6,71.3,59.1,68.4,62.6,56.8,94,76,52,30.15,30.00,5,0,8,0.00
2013-8-22,83.5,72.2,62.9,70.4,65.2,59.5,98,80,55,30.01,29.82,10,1,14,0.23
2013-8-23,74.0,63.7,53.5,67.4,57.9,51.5,99,83,54,30.17,29.91,8,1,10,0.01
2013-8-24,73.5,60.3,48.1,58.3,52.9,47.1,98,79,45,30.34,30.17,5,0,8,0.00
2013-8-25,79.8,65.8,51.5,63.0,56.5,50.1,97,74,46,30.36,30.12,7,1,12,0.00
2013-8-26,75.4,68.5,62.9,68.6,64.8,59.4,98,88,75,30.15,29.88,6,0,9,0.70
2013-8-27,78.5,70.1,65.1,70.8,67.2,64.7,99,91,71,29.94,29.85,4,0,6,0.04
2013-8-28,83.9,72.3,63.0,74.5,68.0,62.4,99,87,63,29.89,29.80,3,0,7,0.00
2013-8-29,81.5,69.6,62.3,72.8,66.8,61.6,99,92,64,30.00,29.89,3,0,7,0.66
2013-8-30,81.1,71.0,63.9,73.6,67.2,63.6,99,88,68,29.98,29.76,3,0,6,0.02
2013-8-31,82.0,72.2,66.7,75.8,69.4,65.7,98,91,79,29.81,29.69,5,1,10,0.10
2013-9-1,81.5,72.8,67.8,74.1,69.4,66.7,98,90,74,29.83,29.74,4,0,9,0.00
2013-9-2,81.7,69.4,62.2,73.9,66.8,61.3,98,92,70,29.79,29.59,13,1,27,1.14
2013-9-3,69.3,63.2,59.2,65.1,59.4,55.8,98,88,68,29.87,29.73,8,2,14,0.00
2013-9-4,74.2,65.7,56.6,60.3,57.5,53.4,92,76,51,29.95,29.87,8,2,12,0.04
2013-9-5,65.9,58.7,44.1,61.6,49.5,40.1,97,74,41,30.19,29.88,8,2,15,0.01
2013-9-6,65.5,52.9,40.5,51.0,44.3,36.8,96,75,45,30.28,30.11,5,1,12,0.00
2013-9-7,69.7,59.9,52.3,60.2,53.1,46.6,94,79,54,30.11,29.86,5,0,7,0.02
2013-9-8,64.5,58.2,43.5,59.9,50.9,39.5,98,79,44,30.10,29.80,7,1,17,1.24
2013-9-9,71.8,57.1,40.7,56.9,48.5,39.1,95,75,43,30.20,30.02,6,1,14,0.00
2013-9-10,83.6,72.5,63.1,76.7,67.5,55.8,96,84,76,30.04,29.93,6,1,13,0.61
2013-9-11,90.8,78.2,68.0,78.0,71.9,66.1,96,82,56,30.02,29.88,8,1,15,1.32
2013-9-12,79.7,69.6,63.7,71.5,66.7,61.3,97,91,72,29.88,29.67,6,1,12,0.11
2013-9-13,63.7,55.6,47.9,61.3,54.3,47.1,98,95,86,29.93,29.64,6,1,10,0.24
2013-9-14,59.3,49.8,44.2,51.2,46.4,42.8,97,89,66,30.13,29.93,7,2,12,0.00
2013-9-15,65.5,54.0,44.0,56.0,47.9,41.8,95,81,53,30.18,30.03,5,0,8,0.00
2013-9-16,56.9,51.0,38.1,53.1,48.6,37.1,98,92,73,30.35,30.05,6,1,12,0.16
2013-9-17,61.9,46.6,34.1,49.3,40.9,33.6,99,83,45,30.50,30.34,5,0,8,0.00
2013-9-18,70.6,55.7,41.3,54.0,46.8,39.6,95,74,48,30.34,30.13,4,1,6,0.00
2013-9-19,75.0,61.1,48.4,61.4,51.5,45.1,89,72,47,30.15,30.02,4,1,7,0.00
2013-9-20,77.4,65.3,54.4,63.9,56.2,50.1,89,74,50,30.04,29.87,7,1,13,0.00
2013-9-21,72.8,64.2,57.7,61.5,58.1,55.6,98,81,62,29.88,29.58,11,3,22,0.50
2013-9-22,57.8,52.1,43.9,57.2,47.9,41.9,98,86,65,29.97,29.61,11,2,20,0.06
2013-9-23,55.8,46.0,38.9,45.1,41.1,37.8,96,84,64,30.11,29.96,7,1,12,0.00
2013-9-24,59.9,47.5,38.5,50.1,42.8,37.2,98,85,64,30.11,29.97,7,2,13,0.00
2013-9-25,67.2,52.2,39.8,54.6,46.7,38.6,98,83,56,30.01,29.92,5,1,9,0.00
2013-9-26,66.8,54.1,43.3,55.5,49.6,42.6,98,86,57,30.13,29.98,5,0,8,0.00
2013-9-27,64.8,53.7,43.5,55.3,49.0,42.3,98,85,65,30.28,30.13,4,1,9,0.00
2013-9-28,70.6,57.1,44.3,59.0,50.8,43.2,98,81,59,30.34,30.22,6,1,10,0.00
2013-9-29,71.1,58.3,46.0,56.8,50.5,44.1,95,77,51,30.22,30.04,6,1,9,0.00
2013-9-30,72.0,58.8,46.5,59.3,51.4,45.1,97,78,49,30.06,29.95,5,0,7,0.00
2013-10-1,71.5,58.8,48.5,62.5,54.5,47.1,97,86,64,30.02,29.92,5,1,9,0.00
2013-10-2,73.0,63.6,53.3,64.9,58.0,48.8,90,82,68,30.04,29.90,8,1,14,0.00
2013-10-3,71.0,57.2,45.9,56.8,50.9,44.5,96,81,43,30.14,30.03,4,0,7,0.00
2013-10-4,65.2,59.0,54.4,62.8,57.1,50.9,98,94,84,30.04,29.99,5,1,10,0.54
2013-10-5,61.7,59.5,56.4,61.0,58.7,54.6,99,97,94,30.08,30.03,3,0,7,0.00
2013-10-6,67.3,58.6,53.4,63.6,56.9,51.7,97,94,87,30.05,29.90,10,3,17,0.42
2013-10-7,74.3,61.7,50.2,65.4,57.6,45.1,97,87,72,29.94,29.63,14,3,21,1.33
2013-10-8,60.2,50.6,41.9,47.4,44.2,40.3,98,80,53,30.38,29.95,8,1,16,0.00
2013-10-9,63.0,49.7,36.3,49.5,42.1,35.5,98,77,54,30.45,30.32,5,1,10,0.00
2013-10-10,64.2,50.9,39.1,51.2,42.9,37.8,96,76,43,30.33,30.17,4,0,7,0.00
2013-10-11,68.3,54.9,46.7,53.7,47.2,42.5,93,77,43,30.17,30.09,3,0,8,0.00
2013-10-12,70.9,56.8,43.0,56.5,48.6,39.8,91,75,56,30.28,30.13,8,2,13,0.00
2013-10-13,68.8,58.4,49.1,57.5,51.8,47.3,94,80,64,30.35,30.25,7,2,12,0.00
2013-10-14,61.0,56.0,54.0,55.4,52.6,49.8,98,89,68,30.31,30.25,5,0,9,0.02
2013-10-15,67.9,57.6,49.4,58.2,53.9,48.8,99,88,65,30.28,30.03,5,1,10,0.00
2013-10-16,63.7,59.1,55.2,55.7,51.7,42.6,91,77,61,30.03,29.80,5,2,12,0.04
2013-10-17,63.7,56.4,49.0,56.1,50.9,47.5,97,83,60,29.87,29.62,8,1,12,0.71
2013-10-18,58.4,51.8,45.2,51.1,45.2,37.3,98,80,47,29.92,29.64,13,2,21,0.10
2013-10-19,62.5,52.5,46.2,48.2,43.8,39.6,92,73,49,29.91,29.66,8,1,17,0.11
2013-10-20,55.4,48.1,42.3,47.5,39.4,35.3,90,72,51,30.01,29.68,12,3,20,0.01
2013-10-21,63.4,53.8,43.4,44.3,40.7,38.9,84,63,43,30.04,29.83,8,2,16,0.00
2013-10-22,55.2,47.7,38.7,44.9,38.4,31.8,86,70,57,29.83,29.72,11,2,20,0.01
2013-10-23,49.0,40.9,35.7,38.3,35.0,31.8,95,80,61,29.81,29.65,6,0,12,0.06
2013-10-24,46.1,38.1,31.7,37.3,33.5,29.3,97,85,55,29.94,29.75,11,2,20,0.18
2013-10-25,44.7,38.9,35.3,37.8,35.8,33.5,97,89,67,30.16,29.94,8,1,13,0.09
2013-10-26,45.1,41.4,36.8,36.6,32.7,29.2,94,72,57,30.15,29.81,7,2,15,0.01
2013-10-27,44.5,41.1,37.2,37.4,35.6,32.6,87,81,73,30.07,29.80,8,2,15,0.00
2013-10-28,50.9,40.4,26.4,40.0,32.3,23.3,92,73,52,30.38,30.05,10,2,17,0.00
2013-10-29,42.7,31.7,21.7,29.5,22.9,17.4,93,73,37,30.49,30.34,4,0,7,0.00
2013-10-30,50.9,40.5,34.4,42.8,36.0,25.2,95,84,68,30.33,30.19,3,0,6,0.04
2013-10-31,59.8,51.6,37.2,57.5,49.5,35.3,95,93,88,30.20,29.53,10,3,18,0.34
2013-11-1,66.9,59.6,49.8,59.9,50.5,40.5,94,73,39,29.66,29.28,14,5,25,0.24
2013-11-2,54.7,45.9,37.0,45.8,41.6,35.3,95,85,66,29.88,29.62,6,1,13,0.06
2013-11-3,38.0,31.9,22.2,35.3,25.1,18.0,94,76,51,30.54,29.88,7,2,13,0.00
2013-11-4,39.9,30.0,19.9,24.7,20.3,16.6,91,68,47,30.69,30.54,6,1,10,0.00
2013-11-5,53.2,42.9,29.8,38.3,31.3,20.1,73,64,52,30.61,30.40,7,2,15,0.00
2013-11-6,60.6,52.6,45.6,49.4,44.4,38.4,84,74,60,30.40,29.84,10,4,21,0.00
2013-11-7,57.1,45.0,34.2,52.0,41.7,33.2,96,88,76,29.92,29.74,10,4,18,0.68
2013-11-8,37.2,35.0,32.1,34.7,31.7,27.5,96,88,72,30.19,29.90,10,3,18,0.14
2013-11-9,43.3,37.9,30.2,35.1,30.9,26.3,96,77,58,30.24,29.83,7,1,12,0.01
2013-11-10,47.7,42.0,36.6,40.1,35.5,29.8,93,78,62,30.05,29.77,14,4,25,0.13
2013-11-11,42.7,38.3,32.6,36.2,32.7,29.7,95,81,65,30.15,29.93,10,3,20,0.10
2013-11-12,32.6,26.6,23.2,31.4,23.0,18.9,96,86,74,30.33,30.00,9,3,14,0.00
2013-11-13,33.2,26.8,21.5,23.6,20.3,17.4,88,77,64,30.42,30.15,8,2,15,0.05
2013-11-14,48.5,37.6,29.0,27.2,20.6,17.4,69,51,36,30.15,30.06,7,2,12,0.01
2013-11-15,54.4,44.3,36.7,27.4,22.1,17.6,57,42,29,30.17,30.09,5,2,10,0.00
2013-11-16,58.1,47.6,39.2,40.0,33.8,22.8,81,60,39,30.28,30.16,6,2,12,0.00
2013-11-17,60.3,54.2,46.9,54.2,48.9,40.0,89,82,74,30.16,29.50,13,5,28,0.00
2013-11-18,60.7,49.5,36.3,55.8,40.2,27.4,91,71,53,29.78,29.40,15,6,26,0.13
2013-11-19,36.4,31.8,25.4,30.8,25.9,18.3,95,79,70,30.44,29.78,14,4,25,0.02
2013-11-20,37.4,26.2,16.1,22.8,17.6,13.2,91,71,47,30.64,30.44,4,0,7,0.01
2013-11-21,44.6,35.5,22.9,35.5,25.0,14.3,83,66,54,30.61,30.32,9,2,18,0.00
2013-11-22,46.1,42.2,36.6,45.0,40.5,33.6,97,94,83,30.32,29.91,13,2,24,0.24
2013-11-23,36.6,29.5,17.8,33.6,24.4,15.4,93,82,47,30.09,29.87,16,6,23,0.01
2013-11-24,23.1,16.5,11.3,15.9,10.8,6.3,92,79,54,30.37,30.00,11,4,21,0.00
2013-11-25,30.8,22.4,9.1,20.6,13.7,3.9,90,70,48,30.43,30.19,8,2,14,0.02
2013-11-26,33.5,30.5,25.9,31.8,27.0,15.9,95,87,56,30.24,29.85,9,2,17,0.25
2013-11-27,34.4,31.7,24.4,33.3,30.7,22.8,98,96,93,29.85,29.50,12,4,20,0.71
2013-11-28,24.3,20.1,16.6,22.7,16.7,13.1,94,87,69,30.46,29.73,11,3,23,0.00
2013-11-29,27.2,17.8,5.8,20.6,14.2,3.1,93,86,71,30.78,30.46,7,1,12,0.06
2013-11-30,29.7,16.6,1.4,23.7,12.1,-1.5,90,82,72,30.79,30.33,10,3,14,0.00
2013-12-1,36.5,32.6,29.3,31.4,27.9,23.6,92,83,74,30.32,30.00,6,2,12,0.04
2013-12-2,38.3,35.2,32.9,34.4,32.7,30.9,94,91,85,30.00,29.88,4,0,6,0.06
2013-12-3,37.0,32.8,26.3,33.2,30.5,24.0,96,91,81,30.03,29.89,2,0,5,0.00
2013-12-4,41.7,32.4,23.7,36.9,29.3,22.0,96,89,81,30.11,30.03,9,2,15,0.01
2013-12-5,55.9,47.6,34.7,52.7,44.4,30.1,95,89,83,30.09,29.84,12,4,18,0.01
2013-12-6,42.2,34.3,29.7,40.8,31.7,27.4,96,90,80,30.20,29.95,8,2,13,0.30
2013-12-7,31.2,28.0,24.5,28.2,24.1,17.5,95,85,71,30.52,30.18,10,3,18,0.01
2013-12-8,26.0,24.3,21.4,21.8,19.0,16.0,90,80,68,30.60,30.37,9,1,16,0.00
2013-12-9,42.2,32.0,24.1,37.0,28.8,21.8,95,88,76,30.37,29.89,11,5,20,0.03
2013-12-10,33.4,26.6,20.7,26.6,20.2,15.0,90,77,64,30.02,29.87,11,3,21,0.00
2013-12-11,26.1,22.5,18.5,20.6,14.8,9.9,90,72,56,30.22,30.02,10,4,20,0.00
2013-12-12,19.3,14.0,1.3,16.2,8.2,-2.2,91,78,61,30.34,30.03,9,2,18,0.00
2013-12-13,23.0,17.3,8.4,19.8,11.7,1.2,91,78,68,30.42,29.99,12,4,21,0.00
2013-12-14,12.6,8.8,5.9,10.0,4.0,-1.0,90,81,69,30.54,29.94,14,3,24,0.00
2013-12-15,24.6,20.8,12.6,22.8,18.7,10.2,94,91,84,29.94,29.64,14,3,22,0.00
2013-12-16,22.0,13.0,1.7,17.8,9.4,-1.7,91,85,75,30.23,29.76,12,2,24,0.00
2013-12-17,19.1,8.5,-2.3,17.5,6.0,-5.5,94,89,85,30.22,30.00,8,1,13,0.00
2013-12-18,31.4,24.0,9.3,23.8,19.1,7.0,94,82,66,30.09,29.99,9,2,17,0.05
2013-12-19,39.6,33.2,26.4,29.6,24.6,19.2,82,71,58,30.09,29.97,9,2,15,0.07
2013-12-20,48.5,42.5,36.2,44.8,36.9,28.3,96,81,56,30.05,29.83,9,2,16,0.31
2013-12-21,55.4,50.8,45.8,51.3,48.4,44.3,98,92,85,29.83,29.75,10,3,20,0.57
2013-12-22,64.1,50.2,36.2,58.2,46.5,34.5,99,88,66,29.96,29.54,13,3,23,0.07
2013-12-23,40.5,36.0,25.8,39.9,34.9,23.4,98,96,90,30.22,29.95,8,2,15,0.10
2013-12-24,25.7,20.7,10.4,23.2,16.8,7.5,91,85,77,30.41,30.17,8,2,13,0.00
2013-12-25,22.7,11.3,-0.8,13.6,6.3,-3.7,90,81,67,30.58,30.33,8,2,14,0.00
2013-12-26,30.5,24.7,20.6,24.7,20.3,13.1,92,83,66,30.33,30.11,9,3,14,0.00
2013-12-27,31.1,26.7,21.0,26.8,21.5,16.0,90,81,71,30.28,30.18,10,2,16,0.00
2013-12-28,40.7,34.1,25.8,32.7,28.3,22.7,93,80,65,30.18,29.98,7,2,13,0.06
2013-12-29,43.2,37.5,32.6,36.0,31.4,28.6,97,80,57,29.98,29.62,6,2,12,0.33
2013-12-30,35.8,19.7,8.0,34.5,16.2,5.3,97,86,69,30.22,29.67,14,4,21,0.09
2013-12-31,24.1,15.8,8.3,19.6,9.8,2.8,91,78,56,30.22,29.99,13,3,24,0.00
2014-1-1,18.1,15.7,12.5,14.0,10.6,6.8,87,80,69,30.39,30.21,8,2,13,0.00
2014-1-2,12.4,9.1,0.1,9.9,6.2,-3.1,90,88,86,30.34,29.93,7,1,12,0.00